Regional Weather Roundup
Issued by NWS San Angelo, TX

Current Version | Previous Version | Text Only | Print | Product List | Glossary On
Versions: 1 2 3 4 5 6 7 8 9 10 11 12 13 14 15 16 17 18 19 20 21 22 23 24 25 26 27 28 29 30 31 32 33 34 35 36 37 38 39 40 41 42 43 44 45 46 47 48 49 50
000
ASUS44 KSJT 251711
RWRSJT
WEST CENTRAL TEXAS REGIONAL WEATHER ROUNDUP
NATIONAL WEATHER SERVICE SAN ANGELO TX
1200 PM CDT WED MAY 25 2016

NOTE: "FAIR" INDICATES FEW OR NO CLOUDS BELOW 12,000 FEET WITH NO
SIGNIFICANT WEATHER AND/OR OBSTRUCTIONS TO VISIBILITY.

TXZ049-054-064>066-071>073-076>078-098-099-113-114-127-128-139-140-
154-155-168>170-251800
...LOCATIONS ACROSS WEST CENTRAL TEXAS...

CITY           SKY/WX    TMP DP  RH WIND       PRES   REMARKS
SAN ANGELO     MOSUNNY   87  72  60 S18G25    29.97S
ABILENE        PTSUNNY   84  73  69 S17       29.97S
DYESS AFB      PTSUNNY   86  65  50 S15       29.95S
JUNCTION       CLOUDY    79  72  79 SW7       30.02R
SWEETWATER     SUNNY     86  65  49 SW13G18   30.01S
BROWNWOOD      CLOUDY    77  72  83 S13G21    30.01R
COLEMAN        CLOUDY    83  72  67 S12G18    29.99F
SONORA         CLOUDY    81  72  74 S13       30.07S
OZONA          FAIR      82  70  65 S13       30.05S
BRADY          NOT AVBL
$$

TEXAS PANHANDLE/OKLAHOMA PANHANDLE

CITY           SKY/WX    TMP DP  RH WIND       PRES   REMARKS
AMARILLO       SUNNY     84  28  13 NW6       30.00R
BORGER         SUNNY     86  31  13 W13       29.95S
CANADIAN       SUNNY     83  47  28 NW7       29.91R
DALHART        SUNNY     79  34  19 VRB5      30.00F
DUMAS          SUNNY     82  26  13 W6        29.99S
GUYMON         NOT AVBL
HEREFORD       SUNNY     87  26  11 W8G23     30.01S
PAMPA          SUNNY     85  41  21 NW9       29.97S
PERRYTON       SUNNY     82  41  24 NW9       29.93S
$$

SOUTHERN PANHANDLE/SOUTH PLAINS/ROLLING PLAINS

CITY           SKY/WX    TMP DP  RH WIND       PRES   REMARKS
LUBBOCK        MOSUNNY   86  36  16 VRB6      30.00S
SNYDER           N/A     85  67  55 W9        29.98F
CHILDRESS      SUNNY     86  65  49 SW10      29.90S
SEMINOLE       SUNNY     88  28  11 W16G26    30.04S
$$

PERMIAN BASIN

CITY           SKY/WX    TMP DP  RH WIND       PRES   REMARKS
MIDLAND        SUNNY     93  28  10 W17G24    30.01S
ODESSA         SUNNY     93  27   9 W14       30.03S
WINK           SUNNY     90  26  10 MISG      30.01S
$$

FAR WEST/SOUTHWEST MOUNTAINS/TRANS PECOS

CITY           SKY/WX    TMP DP  RH WIND       PRES   REMARKS
ALPINE         SUNNY     87  31  13 W13G21    30.19S
DRYDEN           N/A     85  73  67 NE8       30.00F
EL PASO        MOSUNNY   80  30  16 W13G18    30.08F
FORT STOCKTON  SUNNY     91  25   9 N5        30.04F
GUADALUPE PASS NOT AVBL
MARFA          SUNNY     84  32  15 W8G20     30.16F
PECOS          SUNNY     91  25   9 SW9       30.01F
$$

DALLAS/FORT WORTH METROPLEX

CITY           SKY/WX    TMP DP  RH WIND       PRES   REMARKS
DFW AIRPORT    CLOUDY    83  72  69 S17       29.96S
FTW MEACHAM    CLOUDY    82  71  69 S13       29.97R
DAL-EXECUTIVE  CLOUDY    83  72  69 S13G23    29.96F
GRAND PRAIRIE  PTSUNNY   82  70  65 S14G23    29.98S
ADDISON        CLOUDY    84  73  70 S15G23    29.97F
MESQUITE       PTSUNNY   84  73  70 S14G22    29.97F
LANCASTER      CLOUDY    83  71  66 S15       29.98F
$$

NORTH CENTRAL TEXAS

CITY           SKY/WX    TMP DP  RH WIND       PRES   REMARKS
SHRMAN/DENISON CLOUDY    76  68  76 S14       29.98F
GAINESVILLE    CLOUDY    78  72  80 S12G18    30.00R
BRIDGEPORT       N/A     80  73  78 S10G18    29.98
DENTON         CLOUDY    81  72  74 S10       29.97S
WAXAHACHIE     PTSUNNY   81  73  77 S13G20    29.98F
GRANBURY       CLOUDY    81  72  74 S6        29.98R
$$

WESTERN NORTH TEXAS

CITY           SKY/WX    TMP DP  RH WIND       PRES   REMARKS
WICHITA FALLS  PTSUNNY   85  74  69 S14       29.91F
VERNON         MOSUNNY   89  66  47 S15       29.90F
BRECKENRIDGE   PTSUNNY   86  72  62 S17G24    29.96R HAZE
COMANCHE       CLOUDY    76  75  95 S12G20    30.00S FOG
$$

CENTRAL AND SOUTH CENTRAL TEXAS

CITY           SKY/WX    TMP DP  RH WIND       PRES   REMARKS
AUSTIN/BERGSTM CLOUDY    84  76  76 S9        29.99F
WACO           CLOUDY    84  71  65 S22       29.99S
HILLSBORO      CLOUDY    80  73  79 SE15G21   29.98S
TEMPLE         CLOUDY    81  74  79 S8        30.02R
KILLEEN-GRAY   CLOUDY    80  74  80 S13       30.01R
FORT HOOD      CLOUDY    79  73  83 S8        29.99R
GEORGETOWN     CLOUDY    81  72  74 S9G17     30.00S
LAGO VISTA     CLOUDY    81  73  76 S8G17     30.02F
SAN MARCOS     CLOUDY    82  75  78 S12       30.00F FOG
NEW BRAUNFELS  CLOUDY    84  75  74 S14       29.99F
RANDOLPH AFB   PTSUNNY   82  77  85 S12       30.00S
SAN ANTONIO    CLOUDY    81  74  79 SE13      30.00F
STINSON        PTSUNNY   86  75  69 SE13      29.98S
PLEASANTON     NOT AVBL
LA GRANGE        N/A     86  77  76 S14       30.00S
GIDDINGS       CLOUDY    83  73  72 S9G16     30.05S
$$

EAST TEXAS

CITY           SKY/WX    TMP DP  RH WIND       PRES   REMARKS
PARIS          PTSUNNY   82  68  61 S18       30.00S
CLARKSVILLE    NOT AVBL
TYLER          PTSUNNY   86  72  62 S14G24    30.02S
LONGVIEW       PTSUNNY   84  73  69 S14G23    30.02S
PALESTINE      PTSUNNY   85  75  71 SE13      30.03S
NACOGDOCHES    PTSUNNY   84  75  74 S15       30.03F
$$

TEXAS HILL COUNTRY AND EDWARDS PLATEAU

CITY           SKY/WX    TMP DP  RH WIND       PRES   REMARKS
LLANO          CLOUDY    79  73  83 S3        30.04R
HORSESHOE BAY  CLOUDY    80  73  80 S6        30.01R
KERRVILLE      CLOUDY    79  75  89 SE12      30.02S FOG
FREDERICKSBRG  CLOUDY    76  72  85 S8        30.03R
ROCKSPRINGS    CLOUDY    75  73  94 S10       30.05R
HONDO          CLOUDY    82  75  79 SE13      30.01R
UVALDE         PTSUNNY   84  75  74 S12       29.99R
DEL RIO        CLOUDY    80  75  84 SE15      29.95R
$$

SOUTHEAST TEXAS

CITY           SKY/WX    TMP DP  RH WIND       PRES   REMARKS
COLLEGE STN    CLOUDY    85  75  72 S17       30.02R
CALDWELL       CLOUDY    82  75  78 S12       30.05R HAZE
CROCKETT       MOSUNNY   84  75  74 S8        30.06S
BRENHAM        CLOUDY    86  74  68 S12       30.03R
HUNTSVILLE     CLOUDY    87  73  62 S10G18    30.03S
CONROE         PTSUNNY   87  74  64 S14G23    30.03F
HOUSTON BUSH   PTSUNNY   86  73  65 SE18G25   30.03F
HOUSTON HOBBY  CLOUDY    86  74  67 S16       30.04R
PERLAND        PTSUNNY   87  75  67 S14G22    30.06S
WHARTON        PTSUNNY   87  75  67 S15       30.04S
$$

THE UPPER TEXAS COAST

CITY           SKY/WX    TMP DP  RH WIND       PRES   REMARKS
ORANGE         MOSUNNY   85  73  66 S13G20    30.08F
PORT ARTHUR    MOSUNNY   87  75  67 SE14      30.05F
GALVESTON      MOSUNNY   83  79  88 SE16      30.06S
ANGLETON       PTSUNNY   87  75  67 S16       30.04F
BAY CITY       CLOUDY    86  76  72 SE12G18   30.05R
$$

TEXAS COASTAL BEND, RIO GRANDE PLAINS DEEP SOUTH TEXAS

CITY           SKY/WX    TMP DP  RH WIND       PRES   REMARKS
VICTORIA       PTSUNNY   87  73  62 S17G23    30.02R
BEEVILLE       PTSUNNY   89  78  70 S13G22    29.99S
ROCKPORT       PTSUNNY   86  76  71 SE16G22   30.00S
PORT ARANSAS   CLOUDY    85  80  83 SE12G20   30.00F
PORT LAVACA    PTSUNNY   85  77  75 SE16      30.02S
CORPUS CHRISTI PTSUNNY   87  76  69 SE20      29.99S
KINGSVILLE NAS PTSUNNY   89  80  74 SE15      29.97F
COTULLA        CLOUDY    89  74  60 SE16      29.95F
LAREDO         CLOUDY    88  77  69 SE18      29.95F
BROWNSVILLE    CLOUDY    85  77  77 S16       29.98S
PORT ISABEL    PTSUNNY   88  76  67 S20       29.97S
HEBBRONVILLE   CLOUDY    85  74  68 S13       30.00R
MCALLEN        CLOUDY    89  76  65 S14G24    29.96S
WESLACO        CLOUDY    90  74  60 S17       29.96R HAZE
FALFURRIAS     PTSUNNY   89  75  64 S10       29.96F
EDINBURG       PTSUNNY   91  75  59 S14       29.97S
$$




USA.gov is the U.S. government's official web portal to all federal, state and local government web resources and services.